EN

Hourly Weather Dzierzazno

Today, 26 October, Monday

Time Temperature Precipitation Wind Pressure Humidity
00:00 +9°C° 0 mm 5 mps 741 mmHg 89%
01:00 +9°C° 0 mm 5 mps 741 mmHg 89%
02:00 +9°C° 0 mm 5 mps 741 mmHg 90%
03:00 +8°C° 0 mm 4 mps 740 mmHg 91%
04:00 +8°C° 0 mm 4 mps 740 mmHg 92%
05:00 +8°C° 0 mm 4 mps 740 mmHg 93%
06:00 +7°C° 0 mm 4 mps 740 mmHg 94%
07:00 +7°C° 0 mm 4 mps 740 mmHg 96%
08:00 +8°C° 0 mm 4 mps 740 mmHg 93%
09:00 +10°C° 0 mm 4 mps 739 mmHg 90%
10:00 +11°C° 0 mm 4 mps 739 mmHg 86%
11:00 +11°C° 0 mm 4 mps 739 mmHg 85%
12:00 +12°C° 0 mm 4 mps 739 mmHg 84%
13:00 +12°C° 0 mm 4 mps 739 mmHg 82%
14:00 +12°C° 0 mm 4 mps 739 mmHg 82%
15:00 +12°C° 0 mm 4 mps 738 mmHg 82%
16:00 +12°C° 0 mm 4 mps 738 mmHg 83%
17:00 +12°C° 0 mm 3 mps 738 mmHg 84%
18:00 +12°C° 0 mm 3 mps 738 mmHg 86%
19:00 +11°C° 0 mm 3 mps 739 mmHg 88%
20:00 +11°C° 0.1 mm 3 mps 739 mmHg 88%
21:00 +11°C° 0.1 mm 3 mps 739 mmHg 87%
22:00 +11°C° 0.1 mm 3 mps 739 mmHg 87%
23:00 +11°C° 0.1 mm 3 mps 739 mmHg 89%

Tomorrow, 27 October, Tuesday

Time Temperature Precipitation Wind Pressure Humidity
00:00 +12°C° 0.1 mm 2 mps 739 mmHg 91%
01:00 +12°C° 0.1 mm 1 mps 739 mmHg 93%
02:00 +12°C° 0.1 mm 1 mps 739 mmHg 94%
03:00 +12°C° 0.1 mm 1 mps 739 mmHg 94%
04:00 +10°C° 0.1 mm 2 mps 739 mmHg 95%
05:00 +11°C° 0 mm 1 mps 740 mmHg 94%
06:00 +11°C° 0 mm 1 mps 740 mmHg 94%
07:00 +11°C° 0 mm 1 mps 740 mmHg 94%
08:00 +11°C° 0 mm 1 mps 740 mmHg 91%
09:00 +11°C° 0 mm 0 mps 741 mmHg 89%
10:00 +11°C° 0 mm 0 mps 741 mmHg 86%
11:00 +12°C° 0 mm 1 mps 741 mmHg 87%
12:00 +12°C° 0 mm 1 mps 741 mmHg 88%
13:00 +12°C° 0 mm 1 mps 741 mmHg 89%
14:00 +12°C° 1 mm 1 mps 741 mmHg 91%
15:00 +11°C° 1 mm 1 mps 741 mmHg 94%
16:00 +11°C° 1 mm 1 mps 740 mmHg 96%
17:00 +10°C° 1.3 mm 2 mps 740 mmHg 95%
18:00 +10°C° 1.3 mm 2 mps 741 mmHg 94%
19:00 +10°C° 1.3 mm 3 mps 741 mmHg 93%
20:00 +9°C° 0.4 mm 3 mps 741 mmHg 92%
21:00 +9°C° 0.4 mm 3 mps 741 mmHg 91%
22:00 +9°C° 0.4 mm 2 mps 741 mmHg 90%
23:00 +9°C° 0.1 mm 2 mps 742 mmHg 90%

Day after tomorrow, 28 October, Wednesday

Time Temperature Precipitation Wind Pressure Humidity
00:00 +9°C° 0.1 mm 2 mps 742 mmHg 90%
01:00 +8°C° 0.1 mm 3 mps 742 mmHg 90%
02:00 +8°C° 0 mm 3 mps 742 mmHg 91%
03:00 +8°C° 0 mm 3 mps 742 mmHg 92%
04:00 +7°C° 0 mm 3 mps 742 mmHg 92%
05:00 +7°C° 0 mm 3 mps 742 mmHg 92%
06:00 +6°C° 0 mm 4 mps 743 mmHg 91%
07:00 +5°C° 0 mm 4 mps 743 mmHg 91%
08:00 +7°C° 0 mm 5 mps 743 mmHg 84%
09:00 +8°C° 0 mm 5 mps 743 mmHg 78%
10:00 +9°C° 0 mm 6 mps 743 mmHg 71%
11:00 +10°C° 0 mm 6 mps 743 mmHg 67%
12:00 +11°C° 0 mm 6 mps 743 mmHg 64%
13:00 +11°C° 0 mm 6 mps 743 mmHg 60%
14:00 +11°C° 0 mm 6 mps 743 mmHg 63%
15:00 +10°C° 0 mm 5 mps 742 mmHg 66%
16:00 +10°C° 0 mm 5 mps 742 mmHg 69%
17:00 +9°C° 0 mm 5 mps 742 mmHg 71%
18:00 +9°C° 0 mm 5 mps 742 mmHg 73%
19:00 +9°C° 0 mm 5 mps 742 mmHg 75%
20:00 +9°C° 0 mm 5 mps 742 mmHg 74%
21:00 +9°C° 0 mm 5 mps 742 mmHg 74%
22:00 +9°C° 0 mm 5 mps 742 mmHg 74%
23:00 +8°C° 0 mm 5 mps 742 mmHg 77%

29 October, Thursday

Time Temperature Precipitation Wind Pressure Humidity
00:00 +7°C° 0 mm 4 mps 742 mmHg 80%
01:00 +7°C° 0 mm 4 mps 742 mmHg 83%
02:00 +7°C° 0 mm 4 mps 742 mmHg 83%
03:00 +7°C° 0 mm 4 mps 742 mmHg 83%
04:00 +7°C° 0 mm 4 mps 742 mmHg 83%
05:00 +6°C° 0 mm 4 mps 742 mmHg 84%
06:00 +6°C° 0 mm 4 mps 742 mmHg 85%
07:00 +6°C° 0 mm 4 mps 742 mmHg 85%
08:00 +7°C° 0.2 mm 5 mps 742 mmHg 85%
09:00 +7°C° 0.2 mm 5 mps 742 mmHg 85%
10:00 +8°C° 0.2 mm 5 mps 742 mmHg 86%
11:00 +8°C° 0.5 mm 5 mps 742 mmHg 84%
12:00 +9°C° 0.5 mm 6 mps 742 mmHg 82%
13:00 +9°C° 0.5 mm 6 mps 742 mmHg 80%
14:00 +9°C° 0.1 mm 5 mps 743 mmHg 78%
15:00 +9°C° 0.1 mm 5 mps 743 mmHg 77%
16:00 +10°C° 0.1 mm 4 mps 743 mmHg 76%
17:00 +8°C° 0 mm 4 mps 743 mmHg 78%
18:00 +7°C° 0 mm 4 mps 744 mmHg 80%
19:00 +7°C° 0 mm 4 mps 744 mmHg 83%
20:00 +7°C° 0 mm 4 mps 744 mmHg 83%
21:00 +7°C° 0 mm 4 mps 745 mmHg 84%
22:00 +7°C° 0 mm 5 mps 745 mmHg 84%
23:00 +7°C° 0 mm 5 mps 745 mmHg 84%

30 October, Friday

Time Temperature Precipitation Wind Pressure Humidity
00:00 +7°C° 0 mm 5 mps 745 mmHg 85%
01:00 +7°C° 0 mm 5 mps 745 mmHg 85%
02:00 +7°C° 0 mm 5 mps 744 mmHg 84%
03:00 +7°C° 0 mm 6 mps 744 mmHg 82%
04:00 +7°C° 0 mm 6 mps 744 mmHg 81%
05:00 +8°C° 0.1 mm 7 mps 744 mmHg 83%
06:00 +8°C° 0.1 mm 7 mps 743 mmHg 85%
07:00 +8°C° 0.1 mm 7 mps 743 mmHg 86%
08:00 +9°C° 0 mm 7 mps 744 mmHg 86%
09:00 +9°C° 0 mm 7 mps 744 mmHg 86%
10:00 +10°C° 0 mm 7 mps 744 mmHg 86%
11:00 +11°C° 0 mm 7 mps 744 mmHg 85%
12:00 +11°C° 0 mm 7 mps 744 mmHg 84%
13:00 +11°C° 0 mm 7 mps 744 mmHg 83%
14:00 +11°C° 0 mm 7 mps 745 mmHg 84%
15:00 +11°C° 0 mm 7 mps 745 mmHg 84%
16:00 +11°C° 0 mm 6 mps 745 mmHg 85%
17:00 +11°C° 0 mm 6 mps 745 mmHg 84%
18:00 +11°C° 0 mm 6 mps 745 mmHg 82%
19:00 +11°C° 0 mm 6 mps 745 mmHg 81%
20:00 +11°C° 0 mm 6 mps 746 mmHg 81%
21:00 +12°C° 0 mm 5 mps 746 mmHg 81%
22:00 +12°C° 0 mm 5 mps 746 mmHg 81%
23:00 +12°C° 0 mm 5 mps 746 mmHg 82%

31 October, Saturday

Time Temperature Precipitation Wind Pressure Humidity
00:00 +10°C° 0 mm 5 mps 746 mmHg 83%
01:00 +11°C° 0 mm 4 mps 746 mmHg 84%
02:00 +10°C° 0 mm 4 mps 746 mmHg 86%
03:00 +10°C° 0 mm 4 mps 746 mmHg 88%
04:00 +8°C° 0 mm 4 mps 746 mmHg 90%
05:00 +8°C° 0 mm 4 mps 747 mmHg 91%
06:00 +8°C° 0 mm 4 mps 747 mmHg 92%
07:00 +9°C° 0 mm 3 mps 747 mmHg 93%
Show more